K1JO Weather Reports


Display with metric or nautical units.
time (UTC)temp
F
wind
direction
speed
MPH
gust
MPH
rain 1hr
in
rain 24hr
in
rain mn
in
humidity
%
barometer
mb
20260504221848 60 304 1.0 8.0 0.00 0.00 0.00 61 1001.6
20260504221344 60 284 2.0 2.0 0.00 0.00 0.00 64 1001.5
20260504220842 60 344 2.0 3.0 0.00 0.00 0.00 59 1001.6
20260504220338 60 289 1.0 3.0 0.00 0.00 0.00 63 1001.5
20260504215836 60 251 4.0 7.0 0.00 0.00 0.00 59 1001.6
20260504215332 60 300 0.0 8.0 0.00 0.00 0.00 64 1001.6
20260504214828 60 325 0.0 3.0 0.00 0.00 0.00 61 1001.6
20260504214325 61 224 3.0 4.0 0.00 0.00 0.00 58 1001.6
20260504213822 61 359 3.0 3.0 0.00 0.00 0.00 58 1001.2
20260504213317 61 359 7.0 11.0 0.00 0.00 0.00 58 1001.3
20260504212815 60 315 2.0 3.0 0.00 0.00 0.00 60 1001.3
20260504212311 60 125 3.0 8.0 0.00 0.00 0.00 59 1001.4
20260504211809 60 35 2.0 3.0 0.00 0.00 0.00 60 1001.4
20260504211305 61 276 4.0 10.0 0.00 0.00 0.00 58 1001.2
20260504210803 62 272 1.0 4.0 0.00 0.00 0.00 59 1001.3
20260504210259 62 335 2.0 4.0 0.00 0.00 0.00 57 1001.2
20260504205757 61 224 4.0 6.0 0.00 0.00 0.00 60 1001.1
20260504205254 62 256 2.0 9.0 0.00 0.00 0.00 59 1001.0
20260504204752 62 266 7.0 9.0 0.00 0.00 0.00 56 1001.0
20260504204250 61 337 0.0 4.0 0.00 0.00 0.00 60 1000.9
20260504203749 63 356 0.0 3.0 0.00 0.00 0.00 59 1001.0
20260504203246 62 337 1.0 3.0 0.00 0.00 0.00 64 1001.0
20260504202741 61 321 3.0 6.0 0.00 0.00 0.00 60 1000.8
20260504202239 60 38 3.0 7.0 0.00 0.00 0.00 65 1001.1
20260504201736 60 291 1.0 6.0 0.00 0.00 0.00 65 1001.0
20260504201233 60 332 5.0 7.0 0.00 0.00 0.00 66 1000.8
20260504200731 60 317 1.0 3.0 0.00 0.00 0.00 66 1000.9
20260504200226 60 296 0.0 0.0 0.00 0.00 0.00 63 1000.6
20260504195723 60 57 2.0 6.0 0.00 0.00 0.00 61 1000.6
20260504195219 60 273 3.0 10.0 0.00 0.00 0.00 65 1000.7
20260504194716 60 311 3.0 4.0 0.00 0.00 0.00 63 1000.7
20260504194212 61 342 0.0 2.0 0.00 0.00 0.00 63 1000.7
20260504193709 62 336 1.0 6.0 0.00 0.00 0.00 62 1000.8
20260504193207 63 177 3.0 8.0 0.00 0.00 0.00 59 1000.8
20260504192705 62 241 7.0 11.0 0.00 0.00 0.00 60 1000.7
20260504192202 62 316 3.0 3.0 0.00 0.00 0.00 62 1000.8
20260504191701 62 344 1.0 4.0 0.00 0.00 0.00 61 1000.7
20260504191157 60 268 6.0 9.0 0.00 0.00 0.00 62 1000.7
20260504190652 59 162 1.0 7.0 0.00 0.00 0.00 65 1000.9
20260504190149 58 353 1.0 6.0 0.00 0.00 0.00 67 1001.1
20260504185646 58 302 5.0 11.0 0.00 0.00 0.00 66 1000.8
20260504185142 58 282 2.0 8.0 0.00 0.00 0.00 66 1001.1
20260504184638 59 353 2.0 3.0 0.00 0.00 0.00 63 1001.3
20260504184133 58 279 9.0 13.0 0.00 0.00 0.00 64 1000.9
20260504183630 58 167 3.0 7.0 0.00 0.00 0.00 64 1001.3
20260504183128 58 244 5.0 10.0 0.00 0.00 0.00 67 1001.2
20260504182625 58 174 3.0 4.0 0.00 0.00 0.00 64 1001.4
20260504182123 57 88 2.0 9.0 0.00 0.00 0.00 66 1001.2
20260504181620 57 70 1.0 3.0 0.00 0.00 0.00 69 1001.5
20260504181117 55 41 1.0 3.0 0.00 0.00 0.00 71 1001.5
20260504180616 55 297 2.0 3.0 0.00 0.00 0.00 68 1001.5
20260504180115 54 190 1.0 2.0 0.00 0.00 0.00 71 1001.6
20260504175612 53 96 2.0 4.0 0.00 0.00 0.00 71 1001.7
20260504175108 53 348 1.0 3.0 0.00 0.00 0.00 72 1001.6
20260504174607 53 227 2.0 4.0 0.00 0.00 0.00 69 1001.8
20260504174102 54 265 2.0 2.0 0.00 0.00 0.00 69 1001.5
20260504173559 54 269 1.0 3.0 0.00 0.00 0.00 69 1001.5
20260504173057 55 154 2.0 3.0 0.00 0.00 0.00 66 1001.6
20260504172553 55 15 0.0 3.0 0.00 0.00 0.00 64 1001.4
20260504172050 55 261 2.0 3.0 0.00 0.00 0.00 63 1001.2
20260504171546 56 0 2.0 3.0 0.00 0.00 0.00 62 1001.4
20260504171044 56 268 1.0 2.0 0.00 0.00 0.00 61 1001.3
20260504170539 57 218 4.0 4.0 0.00 0.00 0.00 61 1001.2
20260504150923 58 86 3.0 4.0 0.00 0.00 0.00 55 1001.5
20260504150420 57 352 1.0 3.0 0.00 0.00 0.00 60 1001.6
20260504140847 55 350 4.0 8.0 0.00 0.00 0.00 53 1002.2
20260504140343 57 328 4.0 4.0 0.00 0.00 0.00 51 1002.5
20260504130811 53 21 1.0 2.0 0.00 0.00 0.00 55 1003.2
20260504130308 53 299 2.0 3.0 0.00 0.00 0.00 57 1003.3
20260504120231 48 342 0.0 3.0 0.00 0.00 0.00 65 1003.5
20260504110658 39 340 0.0 0.0 0.00 0.00 0.00 91 1003.6
20260504110155 37 322 0.0 0.0 0.00 0.00 0.00 98 1003.6
20260504100119 30 340 0.0 0.0 0.00 0.00 0.00 99 1003.2
20260504081512 30 339 0.0 0.0 0.00 0.00 0.00 99 1002.5
20260504081007 30 336 0.0 0.0 0.00 0.00 0.00 99 1002.5
20260504080504 30 337 0.0 0.0 0.00 0.00 0.00 99 1002.5
20260504050317 33 315 0.0 0.0 0.00 0.00 0.00 99 1001.6
20260504045814 33 156 2.0 3.0 0.00 0.00 0.00 99 1001.6
20260504045314 33 333 0.0 3.0 0.00 0.00 0.00 99 1001.4
20260504044812 32 330 0.0 0.0 0.00 0.00 0.00 99 1001.6
20260504044309 32 342 0.0 0.0 0.00 0.00 0.00 99 1001.4
20260504043806 33 345 0.0 0.0 0.00 0.00 0.00 99 1001.5
20260504043303 33 337 0.0 0.0 0.00 0.00 0.00 98 1001.5
20260504042801 33 353 0.0 2.0 0.00 0.00 0.00 98 1001.3
20260504042257 33 337 0.0 0.0 0.00 0.00 0.00 98 1001.5
20260504041753 33 337 0.0 0.0 0.00 0.00 0.00 98 1001.4
20260504041249 34 339 0.0 0.0 0.00 0.00 0.00 98 1001.3
20260504040745 34 332 0.0 0.0 0.00 0.00 0.00 98 1001.1
20260504040243 34 338 0.0 0.0 0.00 0.00 0.00 97 1001.2
20260504035739 35 340 0.0 0.0 0.00 0.64 0.64 97 1001.3
20260504035236 35 327 0.0 0.0 0.00 0.64 0.64 97 1001.3
20260504034734 35 326 1.0 2.0 0.00 0.64 0.64 96 1001.0
20260504034231 36 321 0.0 0.0 0.00 0.64 0.64 95 1001.0
20260504033729 36 326 0.0 0.0 0.00 0.64 0.64 94 1001.2
20260504033226 37 329 0.0 2.0 0.00 0.64 0.64 91 1000.9
20260504032723 37 328 0.0 1.0 0.00 0.64 0.64 92 1001.0
20260504032220 37 337 0.0 1.0 0.00 0.64 0.64 91 1000.9
20260504031717 37 338 0.0 2.0 0.00 0.64 0.64 90 1001.1
20260504031214 37 343 0.0 1.0 0.00 0.64 0.64 90 1000.9
20260504030710 37 16 2.0 2.0 0.00 0.64 0.64 87 1000.9
20260504030207 38 332 0.0 2.0 0.00 0.64 0.64 85 1000.9
20260504025704 38 349 1.0 2.0 0.00 0.64 0.64 89 1000.8
20260504025200 38 279 2.0 2.0 0.00 0.64 0.64 87 1000.8
20260504024658 38 204 2.0 2.0 0.00 0.64 0.64 86 1000.7
20260504024154 38 331 0.0 4.0 0.00 0.64 0.64 89 1000.7
20260504023650 37 330 3.0 4.0 0.00 0.64 0.64 92 1000.7
20260504023147 37 340 0.0 0.0 0.00 0.64 0.64 92 1000.5
20260504022643 38 333 0.0 1.0 0.00 0.64 0.64 91 1000.5
20260504022139 38 325 1.0 1.0 0.00 0.64 0.64 92 1000.6
20260504021637 38 320 0.0 0.0 0.00 0.64 0.64 91 1000.6
20260504021133 39 336 0.0 0.0 0.00 0.64 0.64 88 1000.4
20260504020631 39 334 1.0 1.0 0.00 0.64 0.64 88 1000.4
20260504020126 39 12 0.0 1.0 0.00 0.64 0.64 89 1000.4
20260504015623 39 307 1.0 3.0 0.00 0.64 0.64 86 1000.3
20260504015120 39 292 1.0 2.0 0.00 0.64 0.64 85 1000.4
20260504014616 40 311 2.0 6.0 0.00 0.64 0.64 87 1000.4
20260504014113 39 327 1.0 2.0 0.00 0.64 0.64 86 1000.3
20260504013610 39 315 0.0 1.0 0.00 0.64 0.64 88 1000.1
20260504013107 40 340 0.0 2.0 0.00 0.64 0.64 87 1000.3
20260504012604 40 346 0.0 1.0 0.00 0.64 0.64 89 1000.2
20260504012102 41 324 0.0 3.0 0.00 0.64 0.64 89 1000.2
20260504011559 41 289 1.0 2.0 0.00 0.64 0.64 87 999.8
20260504011055 42 0 1.0 3.0 0.00 0.64 0.64 86 999.8
20260504010551 42 338 2.0 3.0 0.00 0.64 0.64 85 999.8
20260504010047 42 299 1.0 3.0 0.00 0.64 0.64 87 999.8
20260504005544 42 225 2.0 3.0 0.00 0.64 0.64 90 999.7
20260504005041 41 344 2.0 3.0 0.00 0.64 0.64 92 999.6
20260504004539 41 359 0.0 1.0 0.00 0.64 0.64 96 999.7
20260504004036 41 322 0.0 2.0 0.00 0.64 0.64 98 999.5
20260504003532 41 311 0.0 4.0 0.00 0.64 0.64 99 999.1
20260504003029 41 355 1.0 3.0 0.00 0.64 0.64 99 999.0
20260504002526 41 336 0.0 0.0 0.00 0.64 0.64 99 999.0
20260504002023 41 346 0.0 0.0 0.00 0.64 0.64 99 999.2
20260504001521 42 337 0.0 0.0 0.00 0.64 0.64 99 999.2
20260504001017 42 332 0.0 0.0 0.00 0.64 0.64 99 998.9
20260504000514 42 336 0.0 0.0 0.00 0.64 0.64 99 999.0
20260504000012 43 342 0.0 0.0 0.00 0.64 0.64 99 998.9
20260503235509 43 348 0.0 0.0 0.00 0.64 0.64 98 998.8
20260503235006 43 338 0.0 0.0 0.00 0.64 0.64 98 998.8
20260503234504 43 340 0.0 0.0 0.00 0.64 0.64 97 998.6
20260503234002 44 337 0.0 0.0 0.00 0.64 0.64 97 998.6
20260503233458 44 347 0.0 0.0 0.00 0.64 0.64 96 998.6
20260503232954 44 333 1.0 1.0 0.00 0.64 0.64 95 998.5
20260503232451 44 344 0.0 1.0 0.00 0.64 0.64 95 998.5
20260503231949 45 337 0.0 2.0 0.00 0.64 0.64 95 998.5
20260503231446 45 338 0.0 2.0 0.00 0.64 0.64 93 998.4
20260503230943 45 343 0.0 2.0 0.00 0.64 0.64 94 998.3
20260503230439 45 337 1.0 1.0 0.00 0.64 0.64 93 998.2
20260503225937 46 312 2.0 2.0 0.00 0.64 0.64 91 998.2
20260503225434 45 331 2.0 6.0 0.00 0.64 0.64 91 998.1
20260503224929 45 7 2.0 6.0 0.00 0.64 0.64 91 998.2
20260503224426 46 348 1.0 3.0 0.00 0.64 0.64 91 998.2
20260503223924 46 16 1.0 2.0 0.00 0.64 0.64 91 998.2
20260503223422 46 10 2.0 3.0 0.00 0.64 0.64 92 998.0
20260503222916 46 228 1.0 2.0 0.00 0.64 0.64 91 998.3
20260503222415 46 79 2.0 2.0 0.00 0.64 0.64 91 998.0